ギブス彗星

P/2016 R4 ( Gibbs )

English version
Home page
Updated on March 25, 2017

---------------------------------------------------------------------

・ プロフィール

発見日 2016年9月10日
発見光度 18.9等
発見者 A. R. Gibbs (Mount Lemmon)

・ 写真集

・ 軌道要素

Epoch 2016 July 31.0 TT = JDT 2457600.5
T 2016 July 20.50253 TT                                 MPCW
q   2.8005782            (2000.0)            P               Q
n   0.07998935     Peri.  174.05949     +0.95359920     +0.29866319
a   5.3347566      Node   168.34695     -0.28341250     +0.93311145
e   0.4750317      Incl.   10.86229     -0.10161650     +0.20025814
P  12.32
From 176 observations 2016 July 18-Nov. 26, mean residual 0".5.

・ 光度変化

        m1 = 12.5 + 5 logΔ + 10.0 log r

---------------------------------------------------------------------

軌道要素はM.P.E.C. 2017-A77に掲載されたものです。
光度グラフはComet for Windowsで作成したものです。

---------------------------------------------------------------------

Copyright(C) Seiichi Yoshida (comet@aerith.net). All rights reserved.